Weather History for KAUS - September, 2013

Change the Weather History Date:

Tuesday, September 3, 2013

  Actual Average Record
Temperature  
Mean Temperature 87 °F 81 °F  
Max Temperature 102 °F 94 °F 107 °F (2000)
Min Temperature 72 °F 69 °F 61 °F (2004)
Degree Days  
Heating Degree Days 0 0  
Month to date heating degree days 0 0  
Since 1 July heating degree days 0 0  
Cooling Degree Days 22 16  
Month to date cooling degree days 66 49  
Year to date cooling degree days 2405 2189  
Growing Degree Days 38 (Base 50)    
Moisture  
Dew Point 65 °F    
Average Humidity 57    
Maximum Humidity 84    
Minimum Humidity 29    
Precipitation  
Precipitation 0.00 in 0.08 in 1.29 in (1981)
Month to date precipitation 0.00 0.25  
Year to date precipitation 19.22 23.35  
Snow  
Snow 0.00 in - - ()
Month to date snowfall 0.0  
Since 1 July snowfall 0.0  
Since 1 September snowfall 0.0  
Snow Depth 0.00 in    
Sea Level Pressure  
Sea Level Pressure 29.90 in    
Wind  
Wind Speed 4 mph (South)    
Max Wind Speed 13 mph    
Max Gust Speed 16 mph    
Visibility 10 miles    
Events      
T = Trace of Precipitation, MM = Missing Value Source: NWS Daily Summary

Daily Weather History Graph

Daily Weather History Graph

Search for Another Location

Airport or City:

Trip Planner

Search our weather history database for the weather conditions in past years. The results will help you decide how hot, cold, wet, or windy it might be!

Date:

Astronomy

Sep. 03, 2013 Rise Set
Actual Time 7:08 AM CDT 7:50 PM CDT
Civil Twilight 6:44 AM CDT 8:14 PM CDT
Nautical Twilight 6:15 AM CDT 8:43 PM CDT
Astronomical Twilight 5:46 AM CDT 9:12 PM CDT
Moon 5:27 AM CDT (9/3) 6:37 PM CDT (9/3)
Length of Visible Light 13h 30m
Length of Day
12h 41m
Waning Crescent, 3% of the Moon is Illuminated
Sep 3
Waning Crescent
Sep 5
New
Sep 12
First Quarter
Sep 19
Full
Sep 26
Last Quarter

Hourly Weather History & Observations

Time (CDT) Temp. Heat Index Dew Point Humidity Pressure Visibility Wind Dir Wind Speed Gust Speed Precip Events Conditions
12:53 AM 82.0 °F 84.5 °F 66.9 °F 60% 29.92 in 10.0 mi SSW 5.8 mph - N/A   Partly Cloudy
1:53 AM 78.1 °F - 66.9 °F 68% 29.92 in 10.0 mi South 4.6 mph - N/A   Clear
2:53 AM 78.1 °F - 66.9 °F 68% 29.91 in 10.0 mi SSW 4.6 mph - N/A   Clear
3:53 AM 73.9 °F - 66.9 °F 79% 29.91 in 10.0 mi Calm Calm - N/A   Partly Cloudy
4:53 AM 73.0 °F - 66.9 °F 81% 29.91 in 10.0 mi SW 3.5 mph - N/A   Partly Cloudy
5:53 AM 72.0 °F - 66.9 °F 84% 29.92 in 10.0 mi SSW 3.5 mph - N/A   Partly Cloudy
6:53 AM 73.0 °F - 68.0 °F 84% 29.93 in 10.0 mi Calm Calm - N/A   Partly Cloudy
7:53 AM 75.0 °F - 68.0 °F 79% 29.94 in 10.0 mi Calm Calm - N/A   Scattered Clouds
8:53 AM 82.0 °F 85.5 °F 69.1 °F 65% 29.95 in 10.0 mi WSW 5.8 mph - N/A   Scattered Clouds
9:53 AM 87.1 °F 89.9 °F 66.9 °F 51% 29.96 in 10.0 mi SSW 6.9 mph - N/A   Scattered Clouds
10:53 AM 91.0 °F 93.0 °F 64.9 °F 42% 29.97 in 10.0 mi Calm Calm - N/A   Scattered Clouds
11:53 AM 93.9 °F 96.1 °F 64.9 °F 38% 29.96 in 10.0 mi Variable 4.6 mph - N/A   Scattered Clouds
12:53 PM 95.0 °F 96.0 °F 63.0 °F 34% 29.95 in 10.0 mi Calm Calm - N/A   Scattered Clouds
1:53 PM 96.1 °F 96.4 °F 61.0 °F 31% 29.93 in 10.0 mi ENE 4.6 mph - N/A   Mostly Cloudy
2:53 PM 99.0 °F 100.5 °F 62.1 °F 30% 29.89 in 10.0 mi Variable 3.5 mph - N/A   Mostly Cloudy
3:53 PM 99.0 °F 99.5 °F 61.0 °F 28% 29.85 in 10.0 mi SSW 3.5 mph - N/A   Scattered Clouds
4:53 PM 100.9 °F 102.7 °F 62.1 °F 28% 29.83 in 10.0 mi Calm Calm - N/A   Scattered Clouds
5:53 PM 99.0 °F 99.5 °F 61.0 °F 28% 29.83 in 10.0 mi Calm Calm - N/A   Scattered Clouds
6:53 PM 98.1 °F 99.1 °F 62.1 °F 30% 29.83 in 10.0 mi SSE 3.5 mph - N/A   Mostly Cloudy
7:53 PM 96.1 °F 96.4 °F 61.0 °F 31% 29.84 in 10.0 mi SSE 6.9 mph - N/A   Mostly Cloudy
8:53 PM 93.0 °F 94.2 °F 63.0 °F 37% 29.86 in 10.0 mi SE 4.6 mph - N/A   Mostly Cloudy
9:53 PM 89.1 °F 91.0 °F 64.9 °F 45% 29.88 in 10.0 mi SE 10.4 mph - N/A   Mostly Cloudy
10:53 PM 84.9 °F 86.6 °F 64.9 °F 51% 29.89 in 10.0 mi South 5.8 mph - N/A   Partly Cloudy
11:53 PM 84.9 °F 87.6 °F 66.9 °F 55% 29.90 in 10.0 mi South 5.8 mph - N/A   Partly Cloudy